Year,Month,Day,Hour,Minute,Value (Times are PST for temperature in C)
2009,04,21,00,00,10.10
2009,04,21,00,01,10.00
2009,04,21,00,02,10.00
2009,04,21,00,03,10.00
2009,04,21,00,04,10.00
2009,04,21,00,05,10.00
2009,04,21,00,06,9.90
2009,04,21,00,07,9.90
2009,04,21,00,08,9.90
2009,04,21,00,09,9.90
2009,04,21,00,10,9.90
2009,04,21,00,11,9.90
2009,04,21,00,12,9.90
2009,04,21,00,13,9.90
2009,04,21,00,14,9.90
2009,04,21,00,15,9.90
2009,04,21,00,16,9.90
2009,04,21,00,17,9.90
2009,04,21,00,18,9.90
2009,04,21,00,19,9.90
2009,04,21,00,20,9.90
2009,04,21,00,21,10.00
2009,04,21,00,22,10.00
2009,04,21,00,23,10.00
2009,04,21,00,24,9.90
2009,04,21,00,25,9.90
2009,04,21,00,26,9.90
2009,04,21,00,27,9.90
2009,04,21,00,28,9.90
2009,04,21,00,29,9.90
2009,04,21,00,30,9.90
2009,04,21,00,31,9.90
2009,04,21,00,32,9.90
2009,04,21,00,33,9.90
2009,04,21,00,34,9.90
2009,04,21,00,35,9.90
2009,04,21,00,36,9.80
2009,04,21,00,37,9.80
2009,04,21,00,38,9.80
2009,04,21,00,39,9.80
2009,04,21,00,40,9.80
2009,04,21,00,41,9.70
2009,04,21,00,42,9.70
2009,04,21,00,43,9.70
2009,04,21,00,44,9.70
2009,04,21,00,45,9.70
2009,04,21,00,46,9.70
2009,04,21,00,47,9.60
2009,04,21,00,48,9.60
2009,04,21,00,49,9.60
2009,04,21,00,50,9.60
2009,04,21,00,51,9.60
2009,04,21,00,52,9.60
2009,04,21,00,53,9.60
2009,04,21,00,54,9.50
2009,04,21,00,55,9.50
2009,04,21,00,56,9.40
2009,04,21,00,57,9.40
2009,04,21,00,58,9.30
2009,04,21,00,59,9.30
2009,04,21,01,00,9.30
2009,04,21,01,01,9.30
2009,04,21,01,02,9.30
2009,04,21,01,03,9.20
2009,04,21,01,04,9.20
2009,04,21,01,05,9.20
2009,04,21,01,06,9.20
2009,04,21,01,07,9.20
2009,04,21,01,08,9.20
2009,04,21,01,09,9.20
2009,04,21,01,10,9.10
2009,04,21,01,11,9.10
2009,04,21,01,12,9.10
2009,04,21,01,13,9.10
2009,04,21,01,14,9.10
2009,04,21,01,15,9.10
2009,04,21,01,16,9.10
2009,04,21,01,17,9.10
2009,04,21,01,18,9.00
2009,04,21,01,19,9.00
2009,04,21,01,20,9.00
2009,04,21,01,21,9.00
2009,04,21,01,22,8.90
2009,04,21,01,23,8.90
2009,04,21,01,24,8.90
2009,04,21,01,25,8.90
2009,04,21,01,26,8.90
2009,04,21,01,27,8.90
2009,04,21,01,28,8.90
2009,04,21,01,29,8.90
2009,04,21,01,30,8.90
2009,04,21,01,31,8.90
2009,04,21,01,32,8.90
2009,04,21,01,33,8.80
2009,04,21,01,34,8.80
2009,04,21,01,35,8.90
2009,04,21,01,36,8.80
2009,04,21,01,37,8.80
2009,04,21,01,38,8.80
2009,04,21,01,39,8.80
2009,04,21,01,40,8.80
2009,04,21,01,41,8.80
2009,04,21,01,42,8.80
2009,04,21,01,43,8.80
2009,04,21,01,44,8.80
2009,04,21,01,45,8.80
2009,04,21,01,46,8.80
2009,04,21,01,47,8.80
2009,04,21,01,48,8.80
2009,04,21,01,49,8.80
2009,04,21,01,50,8.80
2009,04,21,01,51,8.80
2009,04,21,01,52,8.80
2009,04,21,01,53,8.80
2009,04,21,01,54,8.80
2009,04,21,01,55,8.80
2009,04,21,01,56,8.80
2009,04,21,01,57,8.80
2009,04,21,01,58,8.80
2009,04,21,01,59,8.90
2009,04,21,02,00,8.90
2009,04,21,02,01,8.90
2009,04,21,02,02,8.90
2009,04,21,02,03,8.90
2009,04,21,02,04,8.90
2009,04,21,02,05,8.90
2009,04,21,02,06,8.80
2009,04,21,02,07,8.80
2009,04,21,02,08,8.80
2009,04,21,02,09,8.80
2009,04,21,02,10,8.70
2009,04,21,02,11,8.70
2009,04,21,02,12,8.70
2009,04,21,02,13,8.70
2009,04,21,02,14,8.60
2009,04,21,02,15,8.60
2009,04,21,02,16,8.60
2009,04,21,02,17,8.60
2009,04,21,02,18,8.60
2009,04,21,02,19,8.60
2009,04,21,02,20,8.50
2009,04,21,02,21,8.50
2009,04,21,02,22,8.40
2009,04,21,02,23,8.40
2009,04,21,02,24,8.40
2009,04,21,02,25,8.40
2009,04,21,02,26,8.40
2009,04,21,02,27,8.40
2009,04,21,02,28,8.30
2009,04,21,02,29,8.40
2009,04,21,02,30,8.40
2009,04,21,02,31,8.40
2009,04,21,02,32,8.40
2009,04,21,02,33,8.40
2009,04,21,02,34,8.40
2009,04,21,02,35,8.30
2009,04,21,02,36,8.30
2009,04,21,02,37,8.30
2009,04,21,02,38,8.30
2009,04,21,02,39,8.30
2009,04,21,02,40,8.40
2009,04,21,02,41,8.40
2009,04,21,02,42,8.40
2009,04,21,02,43,8.40
2009,04,21,02,44,8.40
2009,04,21,02,45,8.40
2009,04,21,02,46,8.30
2009,04,21,02,47,8.30
2009,04,21,02,48,8.30
2009,04,21,02,49,8.30
2009,04,21,02,50,8.30
2009,04,21,02,51,8.30
2009,04,21,02,52,8.30
2009,04,21,02,53,8.20
2009,04,21,02,54,8.20
2009,04,21,02,55,8.20
2009,04,21,02,56,8.20
2009,04,21,02,57,8.10
2009,04,21,02,58,8.10
2009,04,21,02,59,8.10
2009,04,21,03,00,8.00
2009,04,21,03,01,8.00
2009,04,21,03,02,8.00
2009,04,21,03,03,7.90
2009,04,21,03,04,7.90
2009,04,21,03,05,7.90
2009,04,21,03,06,8.00
2009,04,21,03,07,8.00
2009,04,21,03,08,8.00
2009,04,21,03,09,8.00
2009,04,21,03,10,8.10
2009,04,21,03,11,8.10
2009,04,21,03,12,8.10
2009,04,21,03,13,8.10
2009,04,21,03,14,8.10
2009,04,21,03,15,8.00
2009,04,21,03,16,8.00
2009,04,21,03,17,7.90
2009,04,21,03,18,8.00
2009,04,21,03,19,8.00
2009,04,21,03,20,8.10
2009,04,21,03,21,8.10
2009,04,21,03,22,8.10
2009,04,21,03,23,8.10
2009,04,21,03,24,8.10
2009,04,21,03,25,8.00
2009,04,21,03,26,8.00
2009,04,21,03,27,8.00
2009,04,21,03,28,8.00
2009,04,21,03,29,7.90
2009,04,21,03,30,7.90
2009,04,21,03,31,7.90
2009,04,21,03,32,7.90
2009,04,21,03,33,7.90
2009,04,21,03,34,7.90
2009,04,21,03,35,7.90
2009,04,21,03,36,7.80
2009,04,21,03,37,7.80
2009,04,21,03,38,7.80
2009,04,21,03,39,7.80
2009,04,21,03,40,7.80
2009,04,21,03,41,7.70
2009,04,21,03,42,7.70
2009,04,21,03,43,7.60
2009,04,21,03,44,7.60
2009,04,21,03,45,7.60
2009,04,21,03,46,7.60
2009,04,21,03,47,7.60
2009,04,21,03,48,7.60
2009,04,21,03,49,7.60
2009,04,21,03,50,7.60
2009,04,21,03,51,7.60
2009,04,21,03,52,7.60
2009,04,21,03,53,7.50
2009,04,21,03,54,7.50
2009,04,21,03,55,7.40
2009,04,21,03,56,7.40
2009,04,21,03,57,7.40
2009,04,21,03,58,7.40
2009,04,21,03,59,7.40
2009,04,21,04,00,7.40
2009,04,21,04,01,7.40
2009,04,21,04,02,7.40
2009,04,21,04,03,7.40
2009,04,21,04,04,7.40
2009,04,21,04,05,7.30
2009,04,21,04,06,7.30
2009,04,21,04,07,7.30
2009,04,21,04,08,7.30
2009,04,21,04,09,7.30
2009,04,21,04,10,7.30
2009,04,21,04,11,7.40
2009,04,21,04,12,7.40
2009,04,21,04,13,7.40
2009,04,21,04,14,7.40
2009,04,21,04,15,7.40
2009,04,21,04,16,7.40
2009,04,21,04,17,7.40
2009,04,21,04,18,7.40
2009,04,21,04,19,7.40
2009,04,21,04,20,7.30
2009,04,21,04,21,7.30
2009,04,21,04,22,7.30
2009,04,21,04,23,7.30
2009,04,21,04,24,7.30
2009,04,21,04,25,7.20
2009,04,21,04,26,7.20
2009,04,21,04,27,7.20
2009,04,21,04,28,7.20
2009,04,21,04,29,7.20
2009,04,21,04,30,7.20
2009,04,21,04,31,7.20
2009,04,21,04,32,7.20
2009,04,21,04,33,7.20
2009,04,21,04,34,7.20
2009,04,21,04,35,7.20
2009,04,21,04,36,7.20
2009,04,21,04,37,7.20
2009,04,21,04,38,7.20
2009,04,21,04,39,7.10
2009,04,21,04,40,7.10
2009,04,21,04,41,7.10
2009,04,21,04,42,7.10
2009,04,21,04,43,7.10
2009,04,21,04,44,7.10
2009,04,21,04,45,7.10
2009,04,21,04,46,7.10
2009,04,21,04,47,7.10
2009,04,21,04,48,7.10
2009,04,21,04,49,7.10
2009,04,21,04,50,7.10
2009,04,21,04,51,7.10
2009,04,21,04,52,7.00
2009,04,21,04,53,7.00
2009,04,21,04,54,7.00
2009,04,21,04,55,7.00
2009,04,21,04,56,7.00
2009,04,21,04,57,7.00
2009,04,21,04,58,7.00
2009,04,21,04,59,7.00
2009,04,21,05,00,7.00
2009,04,21,05,01,7.00
2009,04,21,05,02,7.00
2009,04,21,05,03,7.00
2009,04,21,05,04,7.10
2009,04,21,05,05,7.10
2009,04,21,05,06,7.10
2009,04,21,05,07,7.10
2009,04,21,05,08,7.10
2009,04,21,05,09,7.10
2009,04,21,05,10,7.20
2009,04,21,05,11,7.20
2009,04,21,05,12,7.20
2009,04,21,05,13,7.20
2009,04,21,05,14,7.20
2009,04,21,05,15,7.20
2009,04,21,05,16,7.20
2009,04,21,05,17,7.20
2009,04,21,05,18,7.20
2009,04,21,05,19,7.20
2009,04,21,05,20,7.20
2009,04,21,05,21,7.20
2009,04,21,05,22,7.20
2009,04,21,05,23,7.20
2009,04,21,05,24,7.20
2009,04,21,05,25,7.20
2009,04,21,05,26,7.20
2009,04,21,05,27,7.20
2009,04,21,05,28,7.20
2009,04,21,05,29,7.20
2009,04,21,05,30,7.10
2009,04,21,05,31,7.10
2009,04,21,05,32,7.10
2009,04,21,05,33,7.00
2009,04,21,05,34,7.00
2009,04,21,05,35,7.00
2009,04,21,05,36,6.90
2009,04,21,05,37,6.90
2009,04,21,05,38,6.90
2009,04,21,05,39,6.80
2009,04,21,05,40,6.80
2009,04,21,05,41,6.80
2009,04,21,05,42,6.80
2009,04,21,05,43,6.80
2009,04,21,05,44,6.80
2009,04,21,05,45,6.80
2009,04,21,05,46,6.80
2009,04,21,05,47,6.80
2009,04,21,05,48,6.80
2009,04,21,05,49,6.80
2009,04,21,05,50,6.80
2009,04,21,05,51,6.80
2009,04,21,05,52,6.70
2009,04,21,05,53,6.70
2009,04,21,05,54,6.70
2009,04,21,05,55,6.70
2009,04,21,05,56,6.70
2009,04,21,05,57,6.70
2009,04,21,05,58,6.70
2009,04,21,05,59,6.70
2009,04,21,06,00,6.70
2009,04,21,06,01,6.60
2009,04,21,06,02,6.60
2009,04,21,06,03,6.60
2009,04,21,06,04,6.60
2009,04,21,06,05,6.60
2009,04,21,06,06,6.60
2009,04,21,06,07,6.60
2009,04,21,06,08,6.60
2009,04,21,06,09,6.60
2009,04,21,06,10,6.60
2009,04,21,06,11,6.60
2009,04,21,06,12,6.60
2009,04,21,06,13,6.60
2009,04,21,06,14,6.60
2009,04,21,06,15,6.60
2009,04,21,06,16,6.60
2009,04,21,06,17,6.60
2009,04,21,06,18,6.60
2009,04,21,06,19,6.60
2009,04,21,06,20,6.60
2009,04,21,06,21,6.60
2009,04,21,06,22,6.60
2009,04,21,06,23,6.60
2009,04,21,06,24,6.60
2009,04,21,06,25,6.70
2009,04,21,06,26,6.70
2009,04,21,06,27,6.70
2009,04,21,06,28,6.70
2009,04,21,06,29,6.70
2009,04,21,06,30,6.80
2009,04,21,06,31,6.80
2009,04,21,06,32,6.80
2009,04,21,06,33,6.80
2009,04,21,06,34,6.80
2009,04,21,06,35,6.80
2009,04,21,06,36,6.80
2009,04,21,06,37,6.80
2009,04,21,06,38,6.70
2009,04,21,06,39,6.70
2009,04,21,06,40,6.70
2009,04,21,06,41,6.70
2009,04,21,06,42,6.70
2009,04,21,06,43,6.70
2009,04,21,06,44,6.70
2009,04,21,06,45,6.80
2009,04,21,06,46,6.80
2009,04,21,06,47,6.80
2009,04,21,06,48,6.80
2009,04,21,06,49,6.80
2009,04,21,06,50,6.80
2009,04,21,06,51,6.80
2009,04,21,06,52,6.80
2009,04,21,06,53,6.80
2009,04,21,06,54,6.80
2009,04,21,06,55,6.90
2009,04,21,06,56,6.90
2009,04,21,06,57,7.00
2009,04,21,06,58,7.00
2009,04,21,06,59,7.10
2009,04,21,07,00,7.10
2009,04,21,07,01,7.10
2009,04,21,07,02,7.20
2009,04,21,07,03,7.20
2009,04,21,07,04,7.20
2009,04,21,07,05,7.20
2009,04,21,07,06,7.30
2009,04,21,07,07,7.30
2009,04,21,07,08,7.40
2009,04,21,07,09,7.50
2009,04,21,07,10,7.60
2009,04,21,07,11,7.60
2009,04,21,07,12,7.60
2009,04,21,07,13,7.70
2009,04,21,07,14,7.70
2009,04,21,07,15,7.80
2009,04,21,07,16,7.80
2009,04,21,07,17,7.80
2009,04,21,07,18,7.90
2009,04,21,07,19,7.90
2009,04,21,07,20,8.00
2009,04,21,07,21,8.00
2009,04,21,07,22,8.10
2009,04,21,07,23,8.10
2009,04,21,07,24,8.20
2009,04,21,07,25,8.20
2009,04,21,07,26,8.20
2009,04,21,07,27,8.30
2009,04,21,07,28,8.30
2009,04,21,07,29,8.40
2009,04,21,07,30,8.40
2009,04,21,07,31,8.50
2009,04,21,07,32,8.50
2009,04,21,07,33,8.60
2009,04,21,07,34,8.60
2009,04,21,07,35,8.70
2009,04,21,07,36,8.70
2009,04,21,07,37,8.70
2009,04,21,07,38,8.80
2009,04,21,07,39,8.80
2009,04,21,07,40,8.90
2009,04,21,07,41,8.90
2009,04,21,07,42,9.00
2009,04,21,07,43,9.10
2009,04,21,07,44,9.10
2009,04,21,07,45,9.20
2009,04,21,07,46,9.30
2009,04,21,07,47,9.30
2009,04,21,07,48,9.40
2009,04,21,07,49,9.50
2009,04,21,07,50,9.60
2009,04,21,07,51,9.60
2009,04,21,07,52,9.80
2009,04,21,07,53,9.90
2009,04,21,07,54,10.00
2009,04,21,07,55,10.10
2009,04,21,07,56,10.20
2009,04,21,07,57,10.30
2009,04,21,07,58,10.30
2009,04,21,07,59,10.40
2009,04,21,08,00,10.40
2009,04,21,08,01,10.50
2009,04,21,08,02,10.60
2009,04,21,08,03,10.60
2009,04,21,08,04,10.60
2009,04,21,08,05,10.60
2009,04,21,08,06,10.70
2009,04,21,08,07,10.80
2009,04,21,08,08,10.80
2009,04,21,08,09,10.90
2009,04,21,08,10,11.10
2009,04,21,08,11,11.20
2009,04,21,08,12,11.30
2009,04,21,08,13,11.40
2009,04,21,08,14,11.50
2009,04,21,08,15,11.60
2009,04,21,08,16,11.70
2009,04,21,08,17,11.70
2009,04,21,08,18,11.80
2009,04,21,08,19,11.80
2009,04,21,08,20,11.90
2009,04,21,08,21,11.90
2009,04,21,08,22,11.90
2009,04,21,08,23,11.80
2009,04,21,08,24,11.80
2009,04,21,08,25,11.80
2009,04,21,08,26,11.80
2009,04,21,08,27,11.80
2009,04,21,08,28,11.80
2009,04,21,08,29,11.80
2009,04,21,08,30,11.80
2009,04,21,08,31,11.80
2009,04,21,08,32,11.70
2009,04,21,08,33,11.60
2009,04,21,08,34,11.60
2009,04,21,08,35,11.60
2009,04,21,08,36,11.60
2009,04,21,08,37,11.60
2009,04,21,08,38,11.60
2009,04,21,08,39,11.60
2009,04,21,08,40,11.70
2009,04,21,08,41,11.70
2009,04,21,08,42,11.80
2009,04,21,08,43,11.80
2009,04,21,08,44,11.80
2009,04,21,08,45,11.80
2009,04,21,08,46,11.90
2009,04,21,08,47,11.90
2009,04,21,08,48,11.90
2009,04,21,08,49,11.90
2009,04,21,08,50,11.90
2009,04,21,08,51,11.90
2009,04,21,08,52,11.90
2009,04,21,08,53,11.90
2009,04,21,08,54,12.00
2009,04,21,08,55,12.00
2009,04,21,08,56,12.10
2009,04,21,08,57,12.10
2009,04,21,08,58,12.20
2009,04,21,08,59,12.20
2009,04,21,09,00,12.30
2009,04,21,09,01,12.40
2009,04,21,09,02,12.40
2009,04,21,09,03,12.50
2009,04,21,09,04,12.50
2009,04,21,09,05,12.40
2009,04,21,09,06,12.50
2009,04,21,09,07,12.50
2009,04,21,09,08,12.50
2009,04,21,09,09,12.50
2009,04,21,09,10,12.60
2009,04,21,09,11,12.60
2009,04,21,09,12,12.60
2009,04,21,09,13,12.50
2009,04,21,09,14,12.40
2009,04,21,09,15,12.40
2009,04,21,09,16,12.30
2009,04,21,09,17,12.20
2009,04,21,09,18,12.20
2009,04,21,09,19,12.20
2009,04,21,09,20,12.20
2009,04,21,09,21,12.20
2009,04,21,09,22,12.10
2009,04,21,09,23,12.00
2009,04,21,09,24,11.90
2009,04,21,09,25,11.80
2009,04,21,09,26,11.80
2009,04,21,09,27,11.80
2009,04,21,09,28,11.80
2009,04,21,09,29,11.80
2009,04,21,09,30,11.80
2009,04,21,09,31,11.80
2009,04,21,09,32,11.80
2009,04,21,09,33,11.80
2009,04,21,09,34,11.90
2009,04,21,09,35,12.10
2009,04,21,09,36,12.20
2009,04,21,09,37,12.40
2009,04,21,09,38,12.50
2009,04,21,09,39,12.50
2009,04,21,09,40,12.60
2009,04,21,09,41,12.60
2009,04,21,09,42,12.60
2009,04,21,09,43,12.60
2009,04,21,09,44,12.60
2009,04,21,09,45,12.60
2009,04,21,09,46,12.50
2009,04,21,09,47,12.50
2009,04,21,09,48,12.60
2009,04,21,09,49,12.60
2009,04,21,09,50,12.70
2009,04,21,09,51,12.80
2009,04,21,09,52,13.00
2009,04,21,09,53,13.20
2009,04,21,09,54,13.30
2009,04,21,09,55,13.40
2009,04,21,09,56,13.40
2009,04,21,09,57,13.40
2009,04,21,09,58,13.40
2009,04,21,09,59,13.40
2009,04,21,10,00,13.30
2009,04,21,10,01,13.10
2009,04,21,10,02,13.00
2009,04,21,10,03,12.80
2009,04,21,10,04,12.70
2009,04,21,10,05,12.60
2009,04,21,10,06,12.60
2009,04,21,10,07,12.50
2009,04,21,10,08,12.40
2009,04,21,10,09,12.40
2009,04,21,10,10,12.40
2009,04,21,10,11,12.40
2009,04,21,10,12,12.40
2009,04,21,10,13,12.40
2009,04,21,10,14,12.40
2009,04,21,10,15,12.30
2009,04,21,10,16,12.30
2009,04,21,10,17,12.20
2009,04,21,10,18,12.20
2009,04,21,10,19,12.20
2009,04,21,10,20,12.10
2009,04,21,10,21,12.10
2009,04,21,10,22,12.10
2009,04,21,10,23,12.10
2009,04,21,10,24,12.00
2009,04,21,10,25,11.90
2009,04,21,10,26,11.90
2009,04,21,10,27,11.90
2009,04,21,10,28,11.90
2009,04,21,10,29,11.90
2009,04,21,10,30,11.90
2009,04,21,10,31,11.90
2009,04,21,10,32,11.90
2009,04,21,10,33,11.90
2009,04,21,10,34,11.90
2009,04,21,10,35,11.90
2009,04,21,10,36,11.90
2009,04,21,10,37,11.90
2009,04,21,10,38,11.90
2009,04,21,10,39,11.80
2009,04,21,10,40,11.70
2009,04,21,10,41,11.70
2009,04,21,10,42,11.70
2009,04,21,10,43,11.60
2009,04,21,10,44,11.60
2009,04,21,10,45,11.50
2009,04,21,10,46,11.40
2009,04,21,10,47,11.40
2009,04,21,10,48,11.50
2009,04,21,10,49,11.50
2009,04,21,10,50,11.50
2009,04,21,10,51,11.60
2009,04,21,10,52,11.60
2009,04,21,10,53,11.70
2009,04,21,10,54,11.70
2009,04,21,10,55,11.70
2009,04,21,10,56,11.80
2009,04,21,10,57,11.90
2009,04,21,10,58,11.90
2009,04,21,10,59,12.00
2009,04,21,11,00,12.00
2009,04,21,11,01,12.00
2009,04,21,11,02,12.10
2009,04,21,11,03,12.20
2009,04,21,11,04,12.20
2009,04,21,11,05,12.20
2009,04,21,11,06,12.30
2009,04,21,11,07,12.30
2009,04,21,11,08,12.30
2009,04,21,11,09,12.30
2009,04,21,11,10,12.30
2009,04,21,11,11,12.30
2009,04,21,11,12,12.40
2009,04,21,11,13,12.50
2009,04,21,11,14,12.50
2009,04,21,11,15,12.50
2009,04,21,11,16,12.50
2009,04,21,11,17,12.60
2009,04,21,11,18,12.60
2009,04,21,11,19,12.60
2009,04,21,11,20,12.60
2009,04,21,11,21,12.60
2009,04,21,11,22,12.60
2009,04,21,11,23,12.60
2009,04,21,11,24,12.60
2009,04,21,11,25,12.70
2009,04,21,11,26,12.70
2009,04,21,11,27,12.70
2009,04,21,11,28,12.70
2009,04,21,11,29,12.70
2009,04,21,11,30,12.70
2009,04,21,11,31,12.70
2009,04,21,11,32,12.70
2009,04,21,11,33,12.60
2009,04,21,11,34,12.50
2009,04,21,11,35,12.40
2009,04,21,11,36,12.20
2009,04,21,11,37,12.10
2009,04,21,11,38,12.00
2009,04,21,11,39,12.00
2009,04,21,11,40,11.90
2009,04,21,11,41,11.90
2009,04,21,11,42,11.90
2009,04,21,11,43,12.00
2009,04,21,11,44,12.10
2009,04,21,11,45,12.10
2009,04,21,11,46,12.20
2009,04,21,11,47,12.20
2009,04,21,11,48,12.20
2009,04,21,11,49,12.30
2009,04,21,11,50,12.40
2009,04,21,11,51,12.50
2009,04,21,11,52,12.50
2009,04,21,11,53,12.60
2009,04,21,11,54,12.60
2009,04,21,11,55,12.60
2009,04,21,11,56,12.60
2009,04,21,11,57,12.60
2009,04,21,11,58,12.50
2009,04,21,11,59,12.40
2009,04,21,12,00,12.40
2009,04,21,12,01,12.30
2009,04,21,12,02,12.30
2009,04,21,12,03,12.30
2009,04,21,12,04,12.30
2009,04,21,12,05,12.30
2009,04,21,12,06,12.30
2009,04,21,12,07,12.30
2009,04,21,12,08,12.30
2009,04,21,12,09,12.30
2009,04,21,12,10,12.40
2009,04,21,12,11,12.50
2009,04,21,12,12,12.50
2009,04,21,12,13,12.60
2009,04,21,12,14,12.70
2009,04,21,12,15,12.90
2009,04,21,12,16,13.00
2009,04,21,12,17,13.10
2009,04,21,12,18,13.10
2009,04,21,12,19,13.20
2009,04,21,12,20,13.20
2009,04,21,12,21,13.30
2009,04,21,12,22,13.50
2009,04,21,12,23,13.60
2009,04,21,12,24,13.70
2009,04,21,12,25,13.80
2009,04,21,12,26,13.90
2009,04,21,12,27,14.00
2009,04,21,12,28,14.10
2009,04,21,12,29,14.20
2009,04,21,12,30,14.20
2009,04,21,12,31,14.30
2009,04,21,12,32,14.40
2009,04,21,12,33,14.40
2009,04,21,12,34,14.50
2009,04,21,12,35,14.60
2009,04,21,12,36,14.70
2009,04,21,12,37,14.90
2009,04,21,12,38,14.80
2009,04,21,12,39,14.80
2009,04,21,12,40,14.80
2009,04,21,12,41,14.80
2009,04,21,12,42,14.90
2009,04,21,12,43,14.80
2009,04,21,12,44,14.80
2009,04,21,12,45,14.60
2009,04,21,12,46,14.50
2009,04,21,12,47,14.30
2009,04,21,12,48,14.30
2009,04,21,12,49,14.10
2009,04,21,12,50,14.00
2009,04,21,12,51,13.90
2009,04,21,12,52,13.80
2009,04,21,12,53,13.80
2009,04,21,12,54,13.80
2009,04,21,12,55,13.80
2009,04,21,12,56,13.80
2009,04,21,12,57,13.90
2009,04,21,12,58,14.00
2009,04,21,12,59,14.10
2009,04,21,13,00,14.00
2009,04,21,13,01,13.90
2009,04,21,13,02,13.90
2009,04,21,13,03,13.80
2009,04,21,13,04,13.70
2009,04,21,13,05,13.70
2009,04,21,13,06,13.60
2009,04,21,13,07,13.60
2009,04,21,13,08,13.60
2009,04,21,13,09,13.50
2009,04,21,13,10,13.30
2009,04,21,13,11,13.20
2009,04,21,13,12,13.00
2009,04,21,13,13,12.80
2009,04,21,13,14,12.70
2009,04,21,13,15,12.50
2009,04,21,13,16,12.40
2009,04,21,13,17,12.20
2009,04,21,13,18,12.20
2009,04,21,13,19,12.20
2009,04,21,13,20,12.20
2009,04,21,13,21,12.40
2009,04,21,13,22,12.60
2009,04,21,13,23,12.70
2009,04,21,13,24,12.70
2009,04,21,13,25,12.80
2009,04,21,13,26,12.70
2009,04,21,13,27,12.70
2009,04,21,13,28,12.80
2009,04,21,13,29,12.80
2009,04,21,13,30,12.80
2009,04,21,13,31,12.80
2009,04,21,13,32,12.80
2009,04,21,13,33,12.80
2009,04,21,13,34,12.80
2009,04,21,13,35,12.90
2009,04,21,13,36,12.90
2009,04,21,13,37,12.80
2009,04,21,13,38,12.80
2009,04,21,13,39,12.80
2009,04,21,13,40,12.90
2009,04,21,13,41,12.90
2009,04,21,13,42,12.90
2009,04,21,13,43,12.90
2009,04,21,13,44,12.90
2009,04,21,13,45,13.00
2009,04,21,13,46,13.10
2009,04,21,13,47,13.10
2009,04,21,13,48,13.10
2009,04,21,13,49,13.20
2009,04,21,13,50,13.20
2009,04,21,13,51,13.30
2009,04,21,13,52,13.30
2009,04,21,13,53,13.40
2009,04,21,13,54,13.40
2009,04,21,13,55,13.50
2009,04,21,13,56,13.60
2009,04,21,13,57,13.70
2009,04,21,13,58,13.80
2009,04,21,13,59,13.80
2009,04,21,14,00,13.90
2009,04,21,14,01,14.00
2009,04,21,14,02,14.10
2009,04,21,14,03,14.20
2009,04,21,14,04,14.30
2009,04,21,14,05,14.40
2009,04,21,14,06,14.40
2009,04,21,14,07,14.40
2009,04,21,14,08,14.40
2009,04,21,14,09,14.30
2009,04,21,14,10,14.30
2009,04,21,14,11,14.20
2009,04,21,14,12,14.20
2009,04,21,14,13,14.10
2009,04,21,14,14,14.00
2009,04,21,14,15,14.00
2009,04,21,14,16,14.00
2009,04,21,14,17,14.10
2009,04,21,14,18,14.20
2009,04,21,14,19,14.30
2009,04,21,14,20,14.50
2009,04,21,14,21,14.60
2009,04,21,14,22,14.80
2009,04,21,14,23,15.00
2009,04,21,14,24,15.00
2009,04,21,14,25,15.10
2009,04,21,14,26,15.30
2009,04,21,14,27,15.50
2009,04,21,14,28,15.60
2009,04,21,14,29,15.80
2009,04,21,14,30,16.00
2009,04,21,14,31,16.10
2009,04,21,14,32,16.30
2009,04,21,14,33,16.50
2009,04,21,14,34,16.50
2009,04,21,14,35,16.60
2009,04,21,14,36,16.70
2009,04,21,14,37,16.80
2009,04,21,14,38,16.90
2009,04,21,14,39,16.90
2009,04,21,14,40,17.00
2009,04,21,14,41,17.10
2009,04,21,14,42,17.20
2009,04,21,14,43,17.20
2009,04,21,14,44,17.20
2009,04,21,14,45,17.20
2009,04,21,14,46,17.30
2009,04,21,14,47,17.40
2009,04,21,14,48,17.60
2009,04,21,14,49,17.70
2009,04,21,14,50,17.80
2009,04,21,14,51,17.90
2009,04,21,14,52,18.00
2009,04,21,14,53,18.10
2009,04,21,14,54,18.20
2009,04,21,14,55,18.30
2009,04,21,14,56,18.40
2009,04,21,14,57,18.50
2009,04,21,14,58,18.70
2009,04,21,14,59,18.80
2009,04,21,15,00,18.90
2009,04,21,15,01,19.10
2009,04,21,15,02,19.50
2009,04,21,15,03,19.80
2009,04,21,15,04,20.00
2009,04,21,15,05,20.00
2009,04,21,15,06,19.90
2009,04,21,15,07,19.90
2009,04,21,15,08,19.80
2009,04,21,15,09,19.70
2009,04,21,15,10,19.80
2009,04,21,15,11,19.70
2009,04,21,15,12,19.70
2009,04,21,15,13,19.60
2009,04,21,15,14,19.50
2009,04,21,15,15,19.70
2009,04,21,15,16,20.00
2009,04,21,15,17,20.30
2009,04,21,15,18,20.50
2009,04,21,15,19,20.70
2009,04,21,15,20,20.80
2009,04,21,15,21,21.00
2009,04,21,15,22,21.10
2009,04,21,15,23,21.20
2009,04,21,15,24,21.20
2009,04,21,15,25,21.20
2009,04,21,15,26,21.10
2009,04,21,15,27,21.00
2009,04,21,15,28,21.00
2009,04,21,15,29,21.00
2009,04,21,15,30,21.10
2009,04,21,15,31,21.10
2009,04,21,15,32,21.20
2009,04,21,15,33,21.20
2009,04,21,15,34,21.30
2009,04,21,15,35,21.30
2009,04,21,15,36,21.40
2009,04,21,15,37,21.40
2009,04,21,15,38,21.40
2009,04,21,15,39,21.50
2009,04,21,15,40,21.60
2009,04,21,15,41,21.50
2009,04,21,15,42,21.40
2009,04,21,15,43,21.30
2009,04,21,15,44,21.20
2009,04,21,15,45,21.20
2009,04,21,15,46,21.30
2009,04,21,15,47,21.30
2009,04,21,15,48,21.30
2009,04,21,15,49,21.30
2009,04,21,15,50,21.30
2009,04,21,15,51,21.20
2009,04,21,15,52,21.20
2009,04,21,15,53,21.20
2009,04,21,15,54,21.20
2009,04,21,15,55,21.20
2009,04,21,15,56,21.20
2009,04,21,15,57,21.20
2009,04,21,15,58,21.20
2009,04,21,15,59,21.20
2009,04,21,16,00,21.30
2009,04,21,16,01,21.30
2009,04,21,16,02,21.30
2009,04,21,16,03,21.30
2009,04,21,16,04,21.30
2009,04,21,16,05,21.30
2009,04,21,16,06,21.20
2009,04,21,16,07,21.30
2009,04,21,16,08,21.30
2009,04,21,16,09,21.30
2009,04,21,16,10,21.20
2009,04,21,16,11,21.20
2009,04,21,16,12,21.20
2009,04,21,16,13,21.20
2009,04,21,16,14,21.20
2009,04,21,16,15,21.20
2009,04,21,16,16,21.20
2009,04,21,16,17,21.20
2009,04,21,16,18,21.20
2009,04,21,16,19,21.20
2009,04,21,16,20,21.20
2009,04,21,16,21,21.20
2009,04,21,16,22,21.10
2009,04,21,16,23,21.10
2009,04,21,16,24,21.10
2009,04,21,16,25,21.10
2009,04,21,16,26,21.00
2009,04,21,16,27,21.00
2009,04,21,16,28,21.00
2009,04,21,16,29,21.00
2009,04,21,16,30,21.00
2009,04,21,16,31,20.90
2009,04,21,16,32,20.90
2009,04,21,16,33,20.90
2009,04,21,16,34,20.90
2009,04,21,16,35,20.90
2009,04,21,16,36,20.90
2009,04,21,16,37,20.90
2009,04,21,16,38,20.90
2009,04,21,16,39,21.00
2009,04,21,16,40,21.00
2009,04,21,16,41,21.00
2009,04,21,16,42,20.90
2009,04,21,16,43,20.90
2009,04,21,16,44,20.90
2009,04,21,16,45,21.00
2009,04,21,16,46,21.00
2009,04,21,16,47,21.10
2009,04,21,16,48,21.00
2009,04,21,16,49,21.00
2009,04,21,16,50,20.90
2009,04,21,16,51,20.80
2009,04,21,16,52,20.60
2009,04,21,16,53,20.40
2009,04,21,16,54,20.30
2009,04,21,16,55,20.20
2009,04,21,16,56,20.20
2009,04,21,16,57,20.10
2009,04,21,16,58,20.10
2009,04,21,16,59,20.10
2009,04,21,17,00,20.00
2009,04,21,17,01,19.90
2009,04,21,17,02,19.80
2009,04,21,17,03,19.70
2009,04,21,17,04,19.60
2009,04,21,17,05,19.50
2009,04,21,17,06,19.50
2009,04,21,17,07,19.50
2009,04,21,17,08,19.60
2009,04,21,17,09,19.50
2009,04,21,17,10,19.50
2009,04,21,17,11,19.30
2009,04,21,17,12,19.20
2009,04,21,17,13,19.10
2009,04,21,17,14,19.10
2009,04,21,17,15,19.00
2009,04,21,17,16,19.00
2009,04,21,17,17,19.00
2009,04,21,17,18,19.10
2009,04,21,17,19,19.20
2009,04,21,17,20,19.30
2009,04,21,17,21,19.30
2009,04,21,17,22,19.30
2009,04,21,17,23,19.30
2009,04,21,17,24,19.30
2009,04,21,17,25,19.30
2009,04,21,17,26,19.50
2009,04,21,17,27,19.60
2009,04,21,17,28,19.70
2009,04,21,17,29,19.80
2009,04,21,17,30,19.80
2009,04,21,17,31,19.90
2009,04,21,17,32,19.90
2009,04,21,17,33,20.00
2009,04,21,17,34,20.10
2009,04,21,17,35,20.10
2009,04,21,17,36,20.10
2009,04,21,17,37,20.00
2009,04,21,17,38,20.00
2009,04,21,17,39,20.10